Погода Казалы

Погода Казалы : погода сейчас, прогноз погоды и архив. Всё, что Вы хотите узнать о погоде Казалы!

Хотите узнать прогноз погоды Казалы? Тогда Вам сюда: Погода Казалы

Поиск расширенной информации на нашем сайте:

Другие новости

Новости СМИ2

Главная страница сайта

Новости сайта

03.07.2017

Напоминаем, что на нашем специализированном сайте Метеоцентр.Азия вы можете получить высокодетализированные автоматические прогнозы погоды по пунктам России, СНГ и мира в авиационном формате (включающие направление и скорость ветра, видимость, явления погоды, количество и форму облачности, нижнюю и верхнюю границу облачности).


Погода Казалы - сегодня

Время (UTC), дата Ветер
(°,м/с) 
Видим.   Явления Облачность Т
(°С)
Тd
(°С)
f(%) Тe
(°С)
Pmin
(гПа)
dP
(гПа)
Po
(мм)
O2
(г/м3)
Тmin Tmax R s Состояние
почвы
12 17.02.18 020 (С) 20000 м    ясно 
-10.4 -15.7 65 -10  1040.5  -0.6  774  325           
15 17.02.18 050 (СВ) 20000 м    ясно 
-15.5 -18.9 75 -16  1040.6  -0.1  773  332    -9.3       
18 17.02.18 050 (СВ) 20000 м    ясно 
-17.8 -20.4 80 -18  1040.3  -0.5  773  335    -9.3       
21 17.02.18 050 (СВ) 20000 м    ясно 
-19.7 -22.3 80 -20  1039.6  -0.7  773  337           
00 18.02.18 050 (СВ) 20000 м    ясно 
-20.3 -22.8 80 -21  1039.4  -0.2  772  338           
03 18.02.18 050 (СВ) 20000 м    ясно 
-21.7 -23.5 85 -22  1039.1  -0.3  772  340  -21.8      17  равномерный
сухой снег
100% 
06 18.02.18 050 (СВ) 20000 м    ясно 
-15.8 -19.2 75 -16  1038.8  -0.1  772  332  -21.8         
09 18.02.18 050 (СВ) 20000 м    ясно 
-9.8 -16.9 56 -12  1037.6  -1  771  324           
12 18.02.18 050 (СВ) 20000 м    ясно 
-9.1 -14.6 64 -9  1036.1  -1.5  770  322           
15 18.02.18 050 (СВ) 20000 м    ясно 
-13.5 -17.8 70 -13  1035.7  -0.6  770  328    -9       
18 18.02.18 070 (В) 20000 м    ясно 
-14 -18.3 70 -16  1034.1  -1.5  769  328    -9       
21 18.02.18 070 (В) 20000 м    ясно 
-13.2 -17.5 70 -17  1032.6  -1.5  768  326           
00 19.02.18 090 (В) 20000 м    ясно 
-13.6 -17.9 70 -17  1031.8  -0.8  767  327           
03 19.02.18 070 (В) 20000 м    8/0 верхняя 
[Ci fib]
-12.5 -16.8 70 -15  1030.5  -1.1  766  325  -14.3      17  равномерный
сухой снег
100% 
06 19.02.18 070 (В) 20000 м    6/0 средняя, верхняя 
[Ac trans|Ci fib]
-8.8 -14.2 65 -12  1029.6  -0.9  765  320  -14.3         
09 19.02.18 070 (В) 20000 м    5/0 верхняя 
[Cc]
-4.8 -11.5 59 -9  1027.1  -2.4  764  314           
12 19.02.18 090 (В) 20000 м    5/0 верхняя 
[Cc]
-4.6 -12.2 55 -7  1025.4  -1.7  762  314           
15 19.02.18 070 (В) 20000 м    3/0 верхняя 
[Ci fib]
-6.4 -9.6 78 -10  1024.4  -1  762  315    -4.5       
18 19.02.18 070 (В) 20000 м    3/0 верхняя 
[Ci fib]
-6.8 -10.1 77 -10  1023.5  -0.8  761  315    -4.5       
21 19.02.18 070 (В) 20000 м    5/0 верхняя 
[Ci fib]
-6.5 -9.7 78 -11  1021.6  -1.9  760  315           
00 20.02.18 070 (В) 20000 м    4/0 верхняя 
[Ci fib]
-7.3 -10.3 79 -11  1019.7  -1.9  758  315           
03 20.02.18 320 (СЗ) 20000 м    10/10 600 м 
[Frnb|Ns]
-5.2 -8.1 80 -5  1030.5  1.8  766  316  -6.4      16  равномерный
сухой снег
100% 
06 20.02.18 тихо ()   20000 м  {снег}  10/10 600 м 
[Sc]
-3.4 -6.2 81 -3  1023.5  761  311  -8.1       
09 20.02.18 110 (В) 20000 м    10/0 средняя 
[Ac As]
-4.4 -9.1 70 -4  1016.3  -1.7  756  310           
12 20.02.18 110 (В) 20000 м    10/0 средняя 
[Ac As]
-4.8 -9.2 71 -4  1015.4  -0.9  755  311           
Время (UTC), дата Ветер
(°,м/с) 
Видим.   Явления Облачность Т
(°С)
Тd
(°С)
f(%) Тe
(°С)
Pmin
(гПа)
dP
(гПа)
Po
(мм)
O2
(г/м3)
Тmin Tmax R s Состояние
почвы

Для получения пояснительной информации подведите курсор к названию столбца.

ПОГОДА Казалы - архив

Всё, что Вы хотите узнать о погоде Казалы - удобно и подробно!

Выберите нужную дату (начиная с 1 января 2015* года) и нажмите кнопку "Найти".
Будут отображены архивные сводки погоды по пункту Казалы, начиная с указанной даты.


Отображать данные в формате CSV (для использования в таблицах Excel)


Внимание! Наш архив погоды предназначен исключительно для личного некоммерческого использования в познавательных целях. Если Вам необходимы официальные справки о состоянии погоды (для производственных, юридических, коммерческих и т.п. целей), обращайтесь в органы Росгидромета.

*Примечание: данная дата относится к архиву по метеостанциям СССР (Россия, СНГ, Балтия).
Архив по метеостанциям Зарубежной Европы и Азии (кроме Китая) хранится 10 дней, по другим регионам земного шара (Китай, Африка, Америка, Австралия, Океания) - 1 день.

Казалы - район местоположения метеостанции


Название, широта, долгота, высота метеостанции:
Казалы (Казалинск) 45.8°ш. 62.1°д. 68 м над ур. моря [Казахстан]

Дополнительная информация

В oтличие oт бoльшинства пoгoдных сайтoв мы публикуем пoдрoбную метеoинфoрмацию в детальнoм прoфессиoнальнoм фoрмате.

Характеристики температуры и влажнoсти вoздуха измеряются на высoте 2 м в тени вдали oт зданий и деревьев.
Скoрoсть ветра измеряется на высoте 10 м (на урoвне рoста челoвека скoрoсть ветра ниже в 1.5-2 раза). Если метеoстанция нахoдится в гoрoде или в лесу, тo скoрoсть ветра занижена на 2-4 м/с пo сравнению с oткрытым местoм. Скoрoсть ветра над акватoриями крупных рек и oзёр, а также на вершинах хoлмoв на 2-5 м/с выше, чем в oбычных услoвиях.
Атмoсфернoе давление в разных тoчках местнoсти мoжет значительнo oтличаться oт давления на метеoстанции, в зависимoсти oт услoвий рельефа (при пoдъёме на 10 м давление пoнижается примернo на 1 мм рт.ст.).